Location: Unspecified
(33.6682°S, 0.0000°E)
Time: 10:30:33
(UTC+00:00)

Tiros 1 despin weight - Pass Details

Date: 22 June 2019
Orbit: 594 x 642 km, 48.2° (Epoch: 20 July)

Event Time Altitude Azimuth Distance (km) Brightness Sun altitude
Rises 11:49:45 0° 273° (W) 2,928 ? 32.8°
Reaches altitude 10° 11:52:25 10° 260° (W) 2,031 ? 32.8°
Maximum altitude 11:56:17 25° 204° (SSW) 1,301 ? 32.9°
Drops below altitude 10° 12:00:14 10° 147° (SSE) 2,056 ? 32.9°
Sets 12:02:57 0° 134° (SE) 2,972 ? 32.9°
